[[{"header":{"parameterUnit":"m.s-1","parameterCategory":1,"la1":30.2991,"la2":30.254,"lo1":-89.0895,"lo2":-89.0444,"dy":0.0017,"dx":0.0017,"nx":28,"ny":28,"refTime":"2024-12-18T09:00:00:Z","depth":0,"parameterNumber":2,"parameterNumberName":"U-component_of_WINDS"},"data":[0,0,0,0,0,0,0,0,0,0,0,0,0,0,0,0,0,0,0,0,0,0,0,0,0,0,0,0,0,0,0,0,0,0,0,0,0,0,0,0,0,0,0,0,0,0,0,0,0,0,0,0,0,0,0,0,0,0,0.5217,0.5217,0,0.5228,0.5228,0.5228,0.5244,0.5245,0.5245,0.5245,0.5256,0.5257,0.5257,0,0,0,0,0,0,0,0,0,0,0,0,0,0.5209,0.521,0.5217,0.5217,0.5217,0.5228,0.5228,0.5228,0.5244,0.5245,0.5245,0.5245,0.5256,0.5257,0.5257,0,0,0,0,0,0,0,0,0,0,0,0,0,0.5216,0.521,0.5217,0.5226,0.5227,0.5228,0.5228,0.5228,0.5244,0.5245,0.5245,0.5245,0.5256,0.5256,0.5257,0.5249,0,0,0.5257,0.5257,0,0,0,0,0,0,0,0,0.5215,0.5216,0.5225,0.5226,0.5227,0.5235,0.523,0.5235,0.5244,0.5238,0.5245,0.5246,0.5249,0.525,0.5251,0.5249,0.525,0.5257,0.5257,0.5257,0.5257,0,0,0,0,0,0,0,0.5215,0.5216,0.5221,0.5225,0.5226,0.523,0.5232,0.5231,0.5241,0.5238,0.524,0.5241,0.525,0.5251,0.5251,0.525,0.5257,0.5257,0.5257,0.5257,0.5243,0.5242,0,0,0,0,0,0,0.5213,0.5215,0.5221,0.5222,0.5222,0.523,0.5232,0.5232,0.5241,0.5243,0.524,0.5241,0.5251,0.5251,0.5252,0.5243,0.5257,0.5257,0.5257,0.5243,0.5243,0.5242,0,0,0,0,0,0,0.5213,0.5213,0.522,0.5219,0.522,0.523,0.523,0.5232,0.5233,0.5242,0.5244,0.524,0.5251,0.5252,0.5249,0.5244,0.5257,0.5257,0.5244,0.5243,0.5242,0.5226,0,0,0,0,0,0,0.5213,0.5213,0.521,0.5219,0.522,0.5218,0.523,0.5232,0.5233,0.5235,0.5242,0.5244,0.5251,0.5249,0.5249,0.5244,0.5257,0.5244,0.5243,0.5243,0.5227,0.5225,0.5223,0,0,0,0,0,0.5212,0.5205,0.521,0.5211,0.5216,0.5217,0.5218,0.5227,0.5233,0.523,0.5236,0.5244,0.5245,0.5249,0.5249,0.5244,0.5244,0.5243,0.5243,0.5228,0.5225,0.5223,0,0,0,0,0,0,0.5196,0.5207,0.5212,0.5207,0.5211,0.522,0.5217,0.5224,0.5226,0.5227,0.5238,0.5239,0.5236,0.524,0.5244,0.5237,0.5246,0.5245,0.5235,0.5232,0.523,0.5229,0.5257,0,0,0,0,0,0.5192,0.5192,0.5201,0.5196,0.5198,0.5207,0.5208,0.5214,0.5219,0.522,0.5226,0.523,0.5232,0.5232,0.5234,0.5228,0.523,0.5225,0.5223,0.5221,0.522,0.5217,0.5215,0.5239,0.5239,0.5239,0,0,0.5183,0.5189,0.5188,0.5193,0.5197,0.5197,0.5208,0.5207,0.5207,0.522,0.5218,0.5223,0.5228,0.5224,0.5223,0.5227,0.5214,0.522,0.5218,0.5218,0.5216,0.5214,0.5212,0.5238,0.5238,0.5239,0,0,0.5168,0.5172,0.5169,0.5172,0.5178,0.5184,0.5183,0.5191,0.5194,0.5193,0.5203,0.5203,0.5205,0.5208,0.521,0.5196,0.5203,0.5196,0.5186,0.5183,0.5181,0.518,0.5175,0.5173,0.5195,0.5195,0.5195,0,0.5156,0.5156,0.5166,0.5164,0.5166,0.5178,0.5175,0.5178,0.5184,0.5185,0.519,0.5192,0.5197,0.5194,0.5191,0.5192,0.5191,0.5195,0.5181,0.5179,0.5178,0.5173,0.5171,0.5194,0.5195,0.5195,0.5195,0,0.5142,0.5142,0.5139,0.5144,0.5146,0.5143,0.5152,0.5153,0.5159,0.5164,0.5163,0.5169,0.5172,0.5171,0.5177,0.5169,0.5172,0.5179,0.5188,0.5175,0.517,0.5169,0.5193,0.5193,0.5194,0.5194,0,0,0.5116,0.5127,0.5126,0.5129,0.5136,0.5136,0.5134,0.5137,0.5138,0.5141,0.514,0.5142,0.5148,0.515,0.5157,0.5155,0.5143,0.5162,0.5162,0.5158,0.5135,0.513,0.5128,0.5148,0.5148,0.5148,0.5134,0,0.5102,0.51,0.5108,0.5104,0.5104,0.5115,0.5113,0.5118,0.5123,0.5124,0.513,0.5131,0.5139,0.5141,0.5139,0.5145,0.5139,0.5146,0.5147,0.5147,0.5145,0.5125,0.512,0.5107,0.5133,0.5133,0.5132,0,0.5085,0.5088,0.5084,0.5091,0.5092,0.509,0.5094,0.5094,0.51,0.5104,0.5106,0.5114,0.5113,0.5122,0.512,0.5125,0.5126,0.5129,0.5129,0.5129,0.5139,0.5125,0.5103,0.5101,0.513,0.513,0.513,0,0.5067,0.507,0.5067,0.5069,0.5078,0.5077,0.5081,0.5087,0.5088,0.5091,0.5092,0.5095,0.5097,0.5099,0.5108,0.5113,0.5105,0.5115,0.5109,0.5108,0.5106,0.5106,0.5084,0.5107,0.5107,0.5107,0.5107,0,0.505,0.5047,0.5059,0.5058,0.5055,0.5065,0.5061,0.5066,0.5071,0.5071,0.5081,0.508,0.5091,0.5092,0.5099,0.5097,0.5098,0.5101,0.5103,0.51,0.5099,0.5101,0.5102,0.5107,0.5107,0.5107,0.5107,0,0.5029,0.5037,0.5036,0.5044,0.5046,0.5044,0.5051,0.505,0.5056,0.5056,0.5056,0.5066,0.5067,0.5076,0.5079,0.5084,0.508,0.5083,0.5078,0.5079,0.5072,0.5073,0.505,0.5048,0.5072,0.5072,0.5072,0,0.5018,0.5016,0.5024,0.5025,0.5028,0.5029,0.503,0.504,0.5041,0.5047,0.5045,0.5048,0.505,0.5052,0.5059,0.5062,0.5066,0.5058,0.5066,0.5064,0.5066,0.5066,0.5066,0.5056,0.5056,0.5055,0.5055,0,0.4997,0.5001,0.5003,0.5006,0.5008,0.5011,0.5014,0.5014,0.5025,0.5026,0.5028,0.5029,0.5033,0.5035,0.5039,0.5043,0.5051,0.5052,0.5051,0.5048,0.5045,0.5047,0.5073,0.5053,0.5053,0.5053,0.5053,0.5053,0.4981,0.4979,0.4985,0.4987,0.499,0.4993,0.4993,0.4999,0.5001,0.5004,0.501,0.5011,0.5017,0.5023,0.5026,0.5027,0.5032,0.503,0.5029,0.5029,0.5027,0.5045,0.5028,0.5028,0.5028,0.5028,0.5028,0,0.496,0.4964,0.4966,0.4971,0.4972,0.4979,0.4984,0.4984,0.4985,0.4989,0.4992,0.4994,0.4996,0.5004,0.5007,0.5006,0.501,0.5006,0.5007,0.5007,0.5023,0.5024,0.5003,0.5003,0.5003,0.5003,0.5003,0.5003,0.495,0.4948,0.4953,0.4953,0.4957,0.4958,0.496,0.4963,0.4967,0.4968,0.497,0.4975,0.4981,0.4985,0.4987,0.4989,0.499,0.4986,0.4989,0.5004,0.5006,0.5008,0.5009,0.4986,0.4986,0.4973,0.4973,0.4973]},{"header":{"parameterUnit":"m.s-1","parameterCategory":1,"la1":30.2991,"la2":30.254,"lo1":-89.0895,"lo2":-89.0444,"dy":0.0017,"dx":0.0017,"nx":28,"ny":28,"refTime":"2024-12-18T09:00:00:Z","depth":0,"parameterNumber":3,"parameterNumberName":"V-component_of_WINDS"},"data":[0,0,0,0,0,0,0,0,0,0,0,0,0,0,0,0,0,0,0,0,0,0,0,0,0,0,0,0,0,0,0,0,0,0,0,0,0,0,0,0,0,0,0,0,0,0,0,0,0,0,0,0,0,0,0,0,0,0,0.4782,0.4781,0,0.4662,0.4661,0.4659,0.4656,0.4658,0.4659,0.4661,0.4532,0.4527,0.4522,0,0,0,0,0,0,0,0,0,0,0,0,0,0.5003,0.4999,0.4783,0.4781,0.478,0.4662,0.4661,0.4659,0.4656,0.4658,0.466,0.4662,0.4533,0.4527,0.4522,0,0,0,0,0,0,0,0,0,0,0,0,0,0.4897,0.4998,0.4783,0.4764,0.4761,0.4663,0.4661,0.4659,0.4656,0.4658,0.466,0.4662,0.4535,0.4528,0.4521,0.4431,0,0,0.4499,0.4496,0,0,0,0,0,0,0,0,0.4903,0.4889,0.4768,0.4765,0.4762,0.4677,0.4691,0.4582,0.4655,0.4696,0.4661,0.4664,0.4578,0.4567,0.4539,0.4425,0.4419,0.4498,0.4494,0.449,0.4488,0,0,0,0,0,0,0,0.4911,0.4894,0.4735,0.4767,0.4763,0.476,0.4747,0.467,0.4625,0.4692,0.4692,0.4678,0.4576,0.4546,0.4536,0.4418,0.4498,0.4492,0.4487,0.4484,0.4221,0.4218,0,0,0,0,0,0,0.4923,0.4901,0.4739,0.4731,0.484,0.4754,0.474,0.4702,0.4626,0.4617,0.4676,0.4678,0.4558,0.4545,0.4532,0.442,0.4491,0.4484,0.448,0.4223,0.422,0.4217,0,0,0,0,0,0,0.4927,0.4908,0.4743,0.4816,0.4795,0.4748,0.4705,0.4698,0.4668,0.4614,0.4605,0.4654,0.4559,0.4542,0.4456,0.4415,0.448,0.4474,0.4227,0.4222,0.4219,0.4196,0,0,0,0,0,0,0.4934,0.491,0.4877,0.4815,0.4791,0.4672,0.4702,0.4694,0.4657,0.4658,0.4591,0.4582,0.4559,0.4467,0.4449,0.4406,0.4468,0.423,0.4225,0.422,0.42,0.4192,0.4185,0,0,0,0,0,0.4942,0.4875,0.4875,0.4856,0.4749,0.4669,0.4655,0.4632,0.4653,0.4618,0.4583,0.4584,0.4423,0.4458,0.4438,0.4393,0.4232,0.4226,0.422,0.4204,0.4194,0.4185,0,0,0,0,0,0,0.4931,0.4866,0.4866,0.4778,0.4729,0.4669,0.4624,0.4622,0.4565,0.4569,0.4541,0.4525,0.4439,0.4408,0.4448,0.43,0.433,0.432,0.4324,0.4314,0.4306,0.4315,0.4462,0,0,0,0,0,0.4919,0.4862,0.4807,0.4734,0.471,0.4672,0.4636,0.4623,0.457,0.4549,0.4508,0.4456,0.4393,0.4352,0.4292,0.4196,0.418,0.4155,0.4147,0.4141,0.4132,0.4077,0.4064,0.4198,0.4198,0.4198,0,0,0.4892,0.4849,0.4815,0.4731,0.4692,0.4631,0.4654,0.4589,0.4543,0.4539,0.4455,0.4423,0.4362,0.4271,0.4228,0.4242,0.4092,0.4134,0.4129,0.4123,0.4069,0.4057,0.4045,0.4194,0.4194,0.4195,0,0,0.4811,0.4775,0.4709,0.4669,0.4611,0.4585,0.457,0.451,0.4489,0.4405,0.44,0.4343,0.4237,0.4193,0.4157,0.406,0.4057,0.4041,0.3999,0.3946,0.3935,0.3926,0.3889,0.3876,0.4032,0.4032,0.4032,0,0.4784,0.4695,0.4675,0.4609,0.4571,0.4567,0.4499,0.4461,0.4384,0.4357,0.4374,0.4239,0.4198,0.4095,0.4071,0.4043,0.4022,0.4047,0.3939,0.3929,0.392,0.3884,0.387,0.403,0.4031,0.4031,0.4031,0,0.4664,0.4601,0.4555,0.4483,0.444,0.4374,0.4341,0.43,0.429,0.4262,0.4175,0.4126,0.4055,0.403,0.4019,0.3925,0.3934,0.3946,0.3974,0.3906,0.3871,0.3858,0.4028,0.4028,0.4029,0.4029,0,0,0.4572,0.449,0.4473,0.444,0.4374,0.4325,0.4257,0.4189,0.4153,0.41,0.4041,0.3951,0.396,0.3919,0.3904,0.3857,0.378,0.3873,0.3871,0.3855,0.367,0.3661,0.3645,0.3779,0.3777,0.3775,0.3674,0,0.4482,0.4364,0.4344,0.4239,0.418,0.4175,0.4116,0.4068,0.404,0.3984,0.3953,0.3888,0.3907,0.3882,0.3836,0.3799,0.3742,0.3807,0.3721,0.3718,0.3734,0.3628,0.3618,0.3526,0.3661,0.3659,0.3657,0,0.4362,0.4308,0.4198,0.414,0.4114,0.4062,0.3997,0.3945,0.3889,0.3872,0.3827,0.3816,0.3743,0.3777,0.3674,0.3718,0.3682,0.3659,0.3655,0.3644,0.3682,0.3612,0.3496,0.3481,0.3636,0.3638,0.364,0,0.4303,0.4203,0.4124,0.4096,0.4026,0.3989,0.3958,0.3905,0.3865,0.3808,0.3781,0.3716,0.3679,0.3628,0.3599,0.3627,0.3497,0.3529,0.3478,0.3479,0.3449,0.3451,0.3324,0.343,0.3431,0.3431,0.3431,0,0.4204,0.4137,0.4096,0.4047,0.3971,0.3947,0.3871,0.384,0.3793,0.3736,0.3728,0.3674,0.364,0.3581,0.3558,0.3475,0.3459,0.3441,0.3435,0.344,0.3442,0.3414,0.3419,0.3427,0.3428,0.3429,0.3429,0,0.4124,0.4095,0.4008,0.395,0.3934,0.388,0.3829,0.3779,0.3752,0.368,0.3662,0.3618,0.3548,0.3515,0.3427,0.3411,0.3316,0.3316,0.3335,0.3332,0.3282,0.3287,0.3131,0.3108,0.3232,0.3231,0.323,0,0.4062,0.401,0.3947,0.3909,0.3878,0.3817,0.3776,0.3751,0.3708,0.3641,0.36,0.353,0.3472,0.3359,0.3318,0.325,0.3247,0.3197,0.3236,0.3242,0.3242,0.3245,0.3238,0.3189,0.3187,0.3186,0.3186,0,0.3953,0.3942,0.3885,0.3822,0.3775,0.3724,0.3674,0.3643,0.3609,0.3561,0.349,0.3446,0.3357,0.3286,0.3216,0.3181,0.3176,0.3174,0.3158,0.3162,0.3174,0.3164,0.3313,0.3177,0.3178,0.3179,0.3179,0.3179,0.3878,0.3831,0.3779,0.3716,0.3676,0.3629,0.358,0.3547,0.3488,0.3415,0.3403,0.3327,0.3271,0.3177,0.3139,0.3078,0.3089,0.3067,0.306,0.3054,0.305,0.3186,0.3065,0.3065,0.3065,0.3065,0.3066,0,0.3767,0.3734,0.3676,0.3607,0.3556,0.356,0.3504,0.346,0.3394,0.3344,0.3288,0.3205,0.3136,0.309,0.302,0.2979,0.2975,0.2961,0.2962,0.2954,0.3046,0.3065,0.2965,0.2965,0.2965,0.2965,0.2965,0.2965,0.3703,0.3623,0.3605,0.3504,0.3471,0.3397,0.3365,0.3321,0.328,0.3189,0.3133,0.3104,0.3054,0.298,0.2916,0.2904,0.2878,0.2863,0.2851,0.2937,0.2948,0.2957,0.2976,0.2858,0.2858,0.2763,0.2763,0.2762]}]]